When you browse on this site, cookies collect data to enhance your experience and personalize the content and advertising you see.
Visit our Privacy Policy to learn more. By continuing to use the site, you agree to this use of cookies and data.
  • In Romania
  • List of Countries
  • For 7 days
  • Water Temperature
  • Weather Map
  • Weather Widgets
  • user-avatar
    Login

    Hourly Weather Cortina d'Ampezzo

    Today, 23 January, Thursday

    Time Temperature Precipitation Wind Pressure Humidity
    00:00 +8°C° 0 mm 2 mps 772 mmHg 81%
    01:00 +7°C° 0 mm 2 mps 772 mmHg 82%
    02:00 +7°C° 0 mm 2 mps 771 mmHg 82%
    03:00 +7°C° 0 mm 2 mps 771 mmHg 83%
    04:00 +7°C° 0 mm 2 mps 771 mmHg 84%
    05:00 +7°C° 0 mm 2 mps 771 mmHg 84%
    06:00 +7°C° 0 mm 2 mps 771 mmHg 83%
    07:00 +6°C° 0 mm 2 mps 771 mmHg 82%
    08:00 +8°C° 0 mm 2 mps 772 mmHg 79%
    09:00 +9°C° 0 mm 2 mps 772 mmHg 76%
    10:00 +10°C° 0 mm 2 mps 772 mmHg 72%
    11:00 +12°C° 0 mm 2 mps 772 mmHg 69%
    12:00 +13°C° 0 mm 2 mps 772 mmHg 65%
    13:00 +15°C° 0 mm 1 mps 772 mmHg 62%
    14:00 +14°C° 0 mm 1 mps 772 mmHg 64%
    15:00 +14°C° 0 mm 1 mps 771 mmHg 67%
    16:00 +14°C° 0 mm 1 mps 771 mmHg 70%
    17:00 +13°C° 0 mm 1 mps 771 mmHg 73%
    18:00 +11°C° 0 mm 1 mps 771 mmHg 77%
    19:00 +10°C° 0 mm 1 mps 771 mmHg 81%
    20:00 +10°C° 0 mm 1 mps 771 mmHg 82%
    21:00 +9°C° 0 mm 1 mps 771 mmHg 83%
    22:00 +8°C° 0 mm 2 mps 771 mmHg 84%
    23:00 +8°C° 0 mm 2 mps 771 mmHg 83%

    Tomorrow, 24 January, Friday

    Time Temperature Precipitation Wind Pressure Humidity
    00:00 +7°C° 0 mm 2 mps 770 mmHg 82%
    01:00 +7°C° 0 mm 2 mps 770 mmHg 81%
    02:00 +7°C° 0 mm 2 mps 770 mmHg 81%
    03:00 +7°C° 0 mm 2 mps 770 mmHg 81%
    04:00 +6°C° 0 mm 2 mps 769 mmHg 81%
    05:00 +6°C° 0 mm 2 mps 769 mmHg 81%
    06:00 +5°C° 0 mm 3 mps 770 mmHg 82%
    07:00 +5°C° 0 mm 3 mps 770 mmHg 83%
    08:00 +7°C° 0 mm 3 mps 770 mmHg 79%
    09:00 +8°C° 0 mm 3 mps 770 mmHg 76%
    10:00 +9°C° 0 mm 3 mps 770 mmHg 72%
    11:00 +10°C° 0 mm 3 mps 770 mmHg 70%
    12:00 +11°C° 0 mm 3 mps 769 mmHg 67%
    13:00 +12°C° 0 mm 3 mps 769 mmHg 65%
    14:00 +12°C° 0 mm 4 mps 769 mmHg 67%
    15:00 +12°C° 0 mm 4 mps 769 mmHg 68%
    16:00 +12°C° 0 mm 4 mps 768 mmHg 70%
    17:00 +12°C° 0.2 mm 4 mps 768 mmHg 72%
    18:00 +11°C° 0.2 mm 4 mps 768 mmHg 74%
    19:00 +10°C° 0.2 mm 4 mps 767 mmHg 76%
    20:00 +10°C° 0.9 mm 4 mps 767 mmHg 79%
    21:00 +10°C° 0.9 mm 4 mps 767 mmHg 82%
    22:00 +10°C° 0.9 mm 4 mps 767 mmHg 85%
    23:00 +8°C° 2.8 mm 4 mps 767 mmHg 88%

    Day after tomorrow, 25 January, Saturday

    Time Temperature Precipitation Wind Pressure Humidity
    00:00 +8°C° 2.8 mm 4 mps 767 mmHg 90%
    01:00 +8°C° 2.8 mm 4 mps 767 mmHg 93%
    02:00 +8°C° 0.3 mm 4 mps 767 mmHg 92%
    03:00 +8°C° 0.3 mm 4 mps 767 mmHg 91%
    04:00 +9°C° 0.3 mm 3 mps 766 mmHg 90%
    05:00 +9°C° 0.2 mm 3 mps 766 mmHg 90%
    06:00 +9°C° 0.2 mm 3 mps 766 mmHg 90%
    07:00 +9°C° 0.2 mm 3 mps 766 mmHg 90%
    08:00 +9°C° 0.1 mm 2 mps 766 mmHg 89%
    09:00 +10°C° 0.1 mm 2 mps 767 mmHg 87%
    10:00 +10°C° 0.1 mm 2 mps 767 mmHg 86%
    11:00 +12°C° 0.1 mm 2 mps 767 mmHg 85%
    12:00 +12°C° 0.1 mm 1 mps 767 mmHg 84%
    13:00 +13°C° 0.1 mm 1 mps 766 mmHg 83%
    14:00 +13°C° 0.1 mm 1 mps 766 mmHg 84%
    15:00 +13°C° 0.1 mm 1 mps 766 mmHg 85%
    16:00 +13°C° 0.1 mm 1 mps 766 mmHg 85%
    17:00 +12°C° 0 mm 1 mps 766 mmHg 88%
    18:00 +11°C° 0 mm 1 mps 766 mmHg 91%
    19:00 +9°C° 0 mm 0 mps 766 mmHg 93%
    20:00 +9°C° 0 mm 0 mps 766 mmHg 94%
    21:00 +8°C° 0 mm 0 mps 766 mmHg 94%
    22:00 +8°C° 0 mm 0 mps 766 mmHg 94%
    23:00 +8°C° 0 mm 0 mps 766 mmHg 94%

    26 January, Sunday

    Time Temperature Precipitation Wind Pressure Humidity
    00:00 +8°C° 0 mm 0 mps 766 mmHg 94%
    01:00 +8°C° 0 mm 0 mps 766 mmHg 94%
    02:00 +9°C° 0 mm 1 mps 766 mmHg 94%
    03:00 +9°C° 0 mm 1 mps 765 mmHg 94%
    04:00 +8°C° 0 mm 1 mps 765 mmHg 94%
    05:00 +8°C° 0 mm 1 mps 765 mmHg 94%
    06:00 +8°C° 0 mm 1 mps 765 mmHg 94%
    07:00 +8°C° 0 mm 1 mps 765 mmHg 94%
    08:00 +9°C° 0 mm 1 mps 765 mmHg 91%
    09:00 +10°C° 0 mm 1 mps 766 mmHg 89%
    10:00 +11°C° 0 mm 1 mps 766 mmHg 86%
    11:00 +12°C° 0 mm 1 mps 766 mmHg 82%
    12:00 +13°C° 0 mm 1 mps 765 mmHg 78%
    13:00 +14°C° 0 mm 1 mps 765 mmHg 74%
    14:00 +14°C° 0 mm 1 mps 765 mmHg 75%
    15:00 +13°C° 0 mm 1 mps 765 mmHg 75%
    16:00 +13°C° 0 mm 1 mps 765 mmHg 75%
    17:00 +12°C° 0 mm 1 mps 765 mmHg 79%
    18:00 +11°C° 0 mm 1 mps 765 mmHg 83%
    19:00 +10°C° 0 mm 1 mps 765 mmHg 88%
    20:00 +9°C° 0 mm 1 mps 765 mmHg 88%
    21:00 +9°C° 0 mm 1 mps 765 mmHg 88%
    22:00 +9°C° 0 mm 1 mps 766 mmHg 89%
    23:00 +9°C° 0 mm 1 mps 766 mmHg 89%

    27 January, Monday

    Time Temperature Precipitation Wind Pressure Humidity
    00:00 +8°C° 0 mm 1 mps 766 mmHg 89%
    01:00 +8°C° 0 mm 1 mps 766 mmHg 89%
    02:00 +8°C° 0 mm 1 mps 766 mmHg 89%
    03:00 +8°C° 0 mm 1 mps 766 mmHg 90%
    04:00 +8°C° 0 mm 1 mps 766 mmHg 90%
    05:00 +7°C° 0 mm 1 mps 766 mmHg 90%
    06:00 +7°C° 0 mm 1 mps 766 mmHg 90%
    07:00 +7°C° 0 mm 1 mps 766 mmHg 90%
    08:00 +8°C° 0 mm 1 mps 766 mmHg 88%
    09:00 +9°C° 0 mm 1 mps 766 mmHg 86%
    10:00 +10°C° 0 mm 1 mps 767 mmHg 85%
    11:00 +11°C° 0 mm 1 mps 767 mmHg 84%
    12:00 +10°C° 0 mm 2 mps 766 mmHg 83%
    13:00 +12°C° 0 mm 2 mps 766 mmHg 82%
    14:00 +12°C° 0.1 mm 2 mps 766 mmHg 84%
    15:00 +12°C° 0.1 mm 2 mps 766 mmHg 85%
    16:00 +12°C° 0.1 mm 2 mps 766 mmHg 87%
    17:00 +10°C° 0.1 mm 2 mps 766 mmHg 89%
    18:00 +10°C° 0.1 mm 2 mps 766 mmHg 90%
    19:00 +10°C° 0.1 mm 3 mps 766 mmHg 92%
    20:00 +10°C° 0.2 mm 3 mps 766 mmHg 92%
    21:00 +10°C° 0.2 mm 3 mps 766 mmHg 92%
    22:00 +10°C° 0.2 mm 3 mps 766 mmHg 92%
    23:00 +10°C° 0.3 mm 4 mps 766 mmHg 92%

    28 January, Tuesday

    Time Temperature Precipitation Wind Pressure Humidity
    00:00 +10°C° 0.3 mm 4 mps 765 mmHg 91%
    01:00 +10°C° 0.3 mm 4 mps 765 mmHg 91%
    02:00 +9°C° 0.3 mm 5 mps 765 mmHg 91%
    03:00 +9°C° 0.3 mm 5 mps 764 mmHg 91%
    04:00 +9°C° 0.3 mm 6 mps 764 mmHg 90%
    05:00 +9°C° 0.2 mm 6 mps 764 mmHg 90%
    06:00 +9°C° 0.2 mm 6 mps 764 mmHg 89%
    07:00 +9°C° 0.2 mm 6 mps 764 mmHg 88%
    08:00 +10°C° 0.1 mm 6 mps 763 mmHg 86%
    09:00 +10°C° 0.1 mm 6 mps 763 mmHg 83%
    10:00 +11°C° 0.1 mm 6 mps 763 mmHg 81%
    11:00 +12°C° 0.2 mm 5 mps 763 mmHg 81%
    12:00 +12°C° 0.2 mm 5 mps 763 mmHg 81%
    13:00 +12°C° 0.2 mm 4 mps 762 mmHg 82%
    14:00 +12°C° 0.2 mm 4 mps 762 mmHg 83%
    15:00 +12°C° 0.2 mm 4 mps 762 mmHg 84%
    16:00 +12°C° 0.2 mm 4 mps 761 mmHg 85%
    17:00 +12°C° 0.2 mm 4 mps 762 mmHg 87%
    18:00 +11°C° 0.2 mm 4 mps 762 mmHg 88%
    19:00 +11°C° 0.2 mm 3 mps 762 mmHg 90%
    20:00 +11°C° 0.1 mm 3 mps 762 mmHg 89%
    21:00 +11°C° 0.1 mm 3 mps 761 mmHg 89%
    22:00 +11°C° 0.1 mm 3 mps 761 mmHg 89%
    23:00 +12°C° 0.1 mm 2 mps 761 mmHg 89%
    Show more